Weather Roundup
Issued by NWS Chicago, IL

Home | Current Version | Previous Version | Text Only | Print | Product List | Glossary Off
Versions: 1 2 3 4 5 6 7 8 9 10 11 12 13 14 15 16 17 18 19 20 21 22 23 24 25 26 27 28 29 30 31 32 33 34 35 36 37 38 39 40 41 42 43 44 45 46 47 48 49 50

488
NZUS59 KLOT 180104
HRRLOT

CHICAGO AREA WEATHER ROUNDUP
NATIONAL WEATHER SERVICE CHICAGO/ROMEOVILLE IL
800 PM CDT TUE OCT 17 2017

NOTE: "FAIR" INDICATES FEW OR NO CLOUDS BELOW 12,000 FEET WITH NO
SIGNIFICANT WEATHER AND/OR OBSTRUCTIONS TO VISIBILITY.

* THESE STATIONS ARE NOT UNDER NWS QUALITY CONTROL. THEY ALSO MAY NOT
  REPORT WEATHER SUCH AS PRECIPITATION OR FOG.

ILZ005-006-012>014-019>023-180200-
NORTHEAST ILLINOIS

CITY           SKY/WX    TMP DP  RH WIND       PRES   REMARKS
OHARE          PTCLDY    62  41  46 S8        30.12R
MIDWAY         CLEAR     63  41  44 S12G22    30.14R
AURORA         CLEAR     59  41  51 S8        30.14S
LANSING*       CLEAR     57  44  60 SW9       30.16S
JOLIET*        CLEAR     60  42  51 S7        30.16R
WAUKEGAN       CLEAR     58  42  55 SW10      30.10R
DUPAGE AIRPORT CLEAR     58  42  55 S8        30.13R
WHEELING       CLEAR     62  42  47 S6        30.14R
KANKAKEE*      CLEAR     57  39  52 S8        30.19S
MORRIS*        CLEAR     56  41  57 S6        30.14S
NORTHERLY ISL    N/A     64  37  36 SW9         N/A
$$

WIZ051-052-058>065-066-070>072-180200-
SOUTHEAST WISCONSIN

CITY           SKY/WX    TMP DP  RH WIND       PRES   REMARKS
MILWAUKEE      PTCLDY    64  42  44 SW13      30.08R
KENOSHA*       CLEAR     60  42  51 SW8       30.11R
RACINE*        CLEAR     61  43  51 SW10      30.11R
WAUKESHA       CLEAR     61  39  44 S6        30.09R
WEST BEND      CLOUDY    59  43  55 SW6       30.06R
$$

INZ001>003-010>013-019-020-180200-
NORTHWEST INDIANA

CITY           SKY/WX    TMP DP  RH WIND       PRES   REMARKS
GARY*          CLEAR     63  37  39 S7        30.16R
MICHIGAN CITY* NOT AVBL
RENSSELAER*    NOT AVBL
VALPARAISO     CLEAR     59  41  51 SW9       30.18R
$$

LMZ740>746-180200-
SOUTHERN LAKE MICHIGAN

STATION/POSITION TIME  SKY/WX   TEMP WIND        PRES    VSBY
                                AIR  DIR/SP/G
                 (UTC)          (F)  (DEG/KT/KT) (MB)    (MI)
HARRISON CRIB    0040            66  200/ 16/ 18   N/A
BURNHAM HARBOR   0045            64  200/ 10/ 13   N/A
CALUMET HARBOR   0030            64  200/  7/ 11 1019.9R
BURNS HARBOR     0040            62  190/ 10/ 13 1021.3R
MICHIGAN CITY    0040            62  180/ 10/ 13   N/A
$$

ABBREVIATIONS USED IN REMARKS
   TC - TEMPERATURE IN CELSIUS
  WCI - WIND CHILL INDEX
   HX - HEAT INDEX
  VSB - VISIBILITY
$$




USA.gov is the U.S. government's official web portal to all federal, state and local government web resources and services.